| time (UTC) | temp C | wind direction | speed KPH | gust KPH | rain 1hr cm | rain 24hr cm | rain mn cm | humidity % | barometer mb |
| 20260502130612 | 11 | 20 | 1.6 | 1.6 | 0.00 | 0.03 | 0.03 | 83 | 1011.4 |
| 20260502130110 | 11 | 26 | 0.0 | 0.0 | 0.00 | 0.03 | 0.03 | 84 | 1011.7 |
| 20260502123555 | 10 | 4 | 1.6 | 3.2 | 0.00 | 0.03 | 0.03 | 88 | 1011.2 |
| 20260502123052 | 10 | 32 | 8.0 | 9.7 | 0.00 | 0.03 | 0.03 | 88 | 1011.4 |
| 20260502122548 | 10 | 8 | 1.6 | 3.2 | 0.00 | 0.03 | 0.03 | 89 | 1011.2 |
| 20260502122046 | 10 | 358 | 1.6 | 1.6 | 0.00 | 0.03 | 0.03 | 90 | 1011.4 |
| 20260502121543 | 10 | 356 | 3.2 | 3.2 | 0.00 | 0.03 | 0.03 | 90 | 1011.4 |
| 20260502121041 | 10 | 3 | 1.6 | 3.2 | 0.00 | 0.03 | 0.03 | 90 | 1011.5 |
| 20260502120537 | 10 | 356 | 4.8 | 4.8 | 0.00 | 0.03 | 0.03 | 90 | 1011.4 |
| 20260502115532 | 10 | 353 | 1.6 | 3.2 | 0.00 | 0.03 | 0.03 | 91 | 1011.7 |
| 20260502115027 | 10 | 3 | 4.8 | 4.8 | 0.00 | 0.03 | 0.03 | 91 | 1011.5 |
| 20260502114524 | 10 | 354 | 1.6 | 1.6 | 0.00 | 0.03 | 0.03 | 92 | 1011.7 |
| 20260502114021 | 10 | 351 | 1.6 | 3.2 | 0.00 | 0.03 | 0.03 | 92 | 1011.4 |
| 20260502113519 | 10 | 340 | 3.2 | 3.2 | 0.00 | 0.03 | 0.03 | 93 | 1011.6 |
| 20260502113017 | 10 | 343 | 1.6 | 1.6 | 0.00 | 0.03 | 0.03 | 93 | 1011.5 |
| 20260502112515 | 10 | 352 | 0.0 | 0.0 | 0.00 | 0.03 | 0.03 | 92 | 1011.3 |
| 20260502112012 | 10 | 354 | 0.0 | 0.0 | 0.00 | 0.03 | 0.03 | 92 | 1011.3 |
| 20260502111509 | 10 | 3 | 1.6 | 1.6 | 0.00 | 0.03 | 0.03 | 92 | 1011.1 |
| 20260502111007 | 10 | 1 | 0.0 | 1.6 | 0.00 | 0.03 | 0.03 | 92 | 1010.8 |
| 20260502110504 | 10 | 355 | 0.0 | 0.0 | 0.00 | 0.03 | 0.03 | 92 | 1010.6 |
| 20260502110002 | 10 | 358 | 0.0 | 0.0 | 0.00 | 0.03 | 0.03 | 92 | 1010.8 |
| 20260502105459 | 10 | 352 | 0.0 | 0.0 | 0.00 | 0.03 | 0.03 | 92 | 1010.3 |
| 20260502104956 | 10 | 354 | 0.0 | 0.0 | 0.13 | 0.03 | 0.03 | 91 | 1010.5 |
| 20260502104453 | 10 | 351 | 0.0 | 0.0 | 0.13 | 0.03 | 0.03 | 90 | 1010.8 |
| 20260502103950 | 10 | 348 | 1.6 | 1.6 | 0.00 | 0.00 | 0.00 | 90 | 1011.0 |
| 20260502103448 | 10 | 340 | 1.6 | 1.6 | 0.00 | 0.00 | 0.00 | 89 | 1011.4 |
| 20260502102945 | 10 | 340 | 0.0 | 0.0 | 0.00 | 0.00 | 0.00 | 89 | 1011.1 |
| 20260502102442 | 10 | 326 | 3.2 | 3.2 | 0.00 | 0.00 | 0.00 | 88 | 1010.9 |
| 20260502101938 | 10 | 342 | 0.0 | 0.0 | 0.00 | 0.00 | 0.00 | 88 | 1011.0 |
| 20260502101437 | 10 | 334 | 0.0 | 0.0 | 0.00 | 0.00 | 0.00 | 88 | 1011.3 |
| 20260502100935 | 10 | 322 | 1.6 | 3.2 | 0.00 | 0.00 | 0.00 | 88 | 1011.2 |
| 20260502100434 | 10 | 336 | 0.0 | 0.0 | 0.00 | 0.00 | 0.00 | 87 | 1011.2 |
| 20260502091408 | 10 | 266 | 1.6 | 3.2 | 0.00 | 0.00 | 0.00 | 86 | 1010.9 |
| 20260502090905 | 10 | 209 | 4.8 | 4.8 | 0.00 | 0.00 | 0.00 | 86 | 1010.9 |
| 20260502090402 | 10 | 267 | 3.2 | 3.2 | 0.00 | 0.00 | 0.00 | 86 | 1010.9 |
| 20260502071257 | 10 | 298 | 1.6 | 3.2 | 0.00 | 0.00 | 0.00 | 83 | 1011.0 |
| 20260502070755 | 10 | 313 | 1.6 | 1.6 | 0.00 | 0.00 | 0.00 | 82 | 1011.0 |
| 20260502070252 | 10 | 256 | 3.2 | 3.2 | 0.00 | 0.00 | 0.00 | 83 | 1010.8 |
| 20260502065751 | 10 | 263 | 1.6 | 3.2 | 0.00 | 0.00 | 0.00 | 82 | 1010.8 |
| 20260502065248 | 10 | 268 | 3.2 | 3.2 | 0.00 | 0.00 | 0.00 | 82 | 1011.0 |
| 20260502064747 | 10 | 303 | 1.6 | 3.2 | 0.00 | 0.00 | 0.00 | 82 | 1011.2 |
| 20260502064244 | 10 | 298 | 1.6 | 3.2 | 0.00 | 0.00 | 0.00 | 82 | 1011.1 |
| 20260502063741 | 10 | 329 | 0.0 | 0.0 | 0.00 | 0.00 | 0.00 | 82 | 1011.1 |
| 20260502063239 | 10 | 239 | 4.8 | 8.0 | 0.00 | 0.00 | 0.00 | 81 | 1011.1 |
| 20260502062736 | 10 | 307 | 3.2 | 4.8 | 0.00 | 0.00 | 0.00 | 81 | 1011.1 |
| 20260502062234 | 10 | 332 | 0.0 | 0.0 | 0.00 | 0.00 | 0.00 | 81 | 1011.1 |
| 20260502061732 | 10 | 246 | 1.6 | 3.2 | 0.00 | 0.00 | 0.00 | 80 | 1011.0 |
| 20260502061229 | 10 | 218 | 6.4 | 8.0 | 0.00 | 0.00 | 0.00 | 80 | 1011.2 |
| 20260502060724 | 10 | 303 | 3.2 | 4.8 | 0.00 | 0.00 | 0.00 | 80 | 1011.3 |
| 20260502060220 | 10 | 327 | 1.6 | 1.6 | 0.00 | 0.00 | 0.00 | 79 | 1011.3 |
| 20260502055718 | 10 | 321 | 0.0 | 0.0 | 0.00 | 0.00 | 0.00 | 78 | 1011.4 |
| 20260502055216 | 10 | 318 | 1.6 | 3.2 | 0.00 | 0.00 | 0.00 | 78 | 1011.6 |
| 20260502054715 | 10 | 323 | 1.6 | 1.6 | 0.00 | 0.00 | 0.00 | 78 | 1011.4 |
| 20260502054212 | 10 | 227 | 3.2 | 8.0 | 0.00 | 0.00 | 0.00 | 77 | 1011.1 |
| 20260502053710 | 10 | 283 | 1.6 | 3.2 | 0.00 | 0.00 | 0.00 | 77 | 1011.0 |
| 20260502053206 | 10 | 325 | 0.0 | 1.6 | 0.00 | 0.00 | 0.00 | 77 | 1011.3 |
| 20260502052705 | 10 | 306 | 3.2 | 3.2 | 0.00 | 0.00 | 0.00 | 77 | 1011.2 |
| 20260502052203 | 10 | 330 | 1.6 | 3.2 | 0.00 | 0.00 | 0.00 | 76 | 1011.1 |
| 20260502051700 | 10 | 139 | 4.8 | 4.8 | 0.00 | 0.00 | 0.00 | 76 | 1011.2 |
| 20260502051159 | 10 | 269 | 3.2 | 3.2 | 0.00 | 0.00 | 0.00 | 76 | 1011.2 |
| 20260502050655 | 10 | 337 | 0.0 | 0.0 | 0.00 | 0.00 | 0.00 | 75 | 1011.0 |
| 20260502050151 | 10 | 332 | 0.0 | 0.0 | 0.00 | 0.00 | 0.00 | 75 | 1011.2 |
| 20260502045648 | 10 | 274 | 3.2 | 4.8 | 0.00 | 0.00 | 0.00 | 75 | 1011.3 |
| 20260502045145 | 11 | 331 | 0.0 | 0.0 | 0.00 | 0.00 | 0.00 | 75 | 1011.1 |
| 20260502044642 | 11 | 332 | 0.0 | 0.0 | 0.00 | 0.00 | 0.00 | 75 | 1011.3 |
| 20260502044138 | 11 | 298 | 1.6 | 3.2 | 0.00 | 0.00 | 0.00 | 74 | 1011.2 |
| 20260502043636 | 11 | 306 | 3.2 | 3.2 | 0.00 | 0.00 | 0.00 | 74 | 1011.3 |
| 20260502043133 | 11 | 235 | 3.2 | 8.0 | 0.00 | 0.00 | 0.00 | 75 | 1011.4 |
| 20260502042632 | 11 | 297 | 3.2 | 3.2 | 0.00 | 0.00 | 0.00 | 75 | 1011.5 |
| 20260502042129 | 11 | 290 | 3.2 | 3.2 | 0.00 | 0.00 | 0.00 | 76 | 1011.6 |
| 20260502041627 | 10 | 317 | 1.6 | 3.2 | 0.00 | 0.00 | 0.00 | 77 | 1011.6 |
| 20260502041124 | 10 | 300 | 3.2 | 3.2 | 0.00 | 0.00 | 0.00 | 78 | 1011.5 |
| 20260502040621 | 10 | 328 | 0.0 | 1.6 | 0.00 | 0.00 | 0.00 | 80 | 1011.6 |
| 20260502040118 | 10 | 330 | 3.2 | 3.2 | 0.00 | 0.00 | 0.00 | 81 | 1011.6 |
| 20260502035614 | 10 | 335 | 3.2 | 3.2 | 0.00 | 0.00 | 0.00 | 82 | 1011.5 |
| 20260502035111 | 10 | 237 | 6.4 | 8.0 | 0.00 | 0.00 | 0.00 | 82 | 1011.4 |
| 20260502034609 | 10 | 336 | 1.6 | 3.2 | 0.00 | 0.00 | 0.00 | 83 | 1011.4 |
| 20260502034107 | 10 | 272 | 1.6 | 3.2 | 0.00 | 0.00 | 0.00 | 83 | 1011.2 |
| 20260502033605 | 10 | 335 | 0.0 | 0.0 | 0.00 | 0.00 | 0.00 | 83 | 1011.2 |
| 20260502033103 | 10 | 333 | 0.0 | 0.0 | 0.00 | 0.00 | 0.00 | 84 | 1011.3 |
| 20260502032558 | 10 | 336 | 0.0 | 0.0 | 0.00 | 0.00 | 0.00 | 84 | 1011.4 |
| 20260502032055 | 10 | 324 | 1.6 | 3.2 | 0.00 | 0.00 | 0.00 | 85 | 1011.3 |
| 20260502031553 | 10 | 327 | 0.0 | 0.0 | 0.00 | 0.00 | 0.00 | 85 | 1011.5 |
| 20260502031050 | 10 | 330 | 1.6 | 3.2 | 0.00 | 0.00 | 0.00 | 85 | 1011.5 |
| 20260502030549 | 10 | 326 | 1.6 | 1.6 | 0.00 | 0.00 | 0.00 | 85 | 1011.8 |
| 20260502030047 | 10 | 322 | 1.6 | 1.6 | 0.00 | 0.00 | 0.00 | 85 | 1011.6 |
| 20260502025544 | 10 | 307 | 3.2 | 3.2 | 0.00 | 0.00 | 0.00 | 85 | 1011.8 |
| 20260502025042 | 10 | 310 | 3.2 | 3.2 | 0.00 | 0.00 | 0.00 | 85 | 1011.8 |
| 20260502024539 | 10 | 287 | 3.2 | 3.2 | 0.00 | 0.00 | 0.00 | 85 | 1012.0 |
| 20260502024037 | 10 | 214 | 1.6 | 3.2 | 0.00 | 0.00 | 0.00 | 85 | 1011.9 |
| 20260502023534 | 10 | 176 | 1.6 | 3.2 | 0.00 | 0.00 | 0.00 | 85 | 1011.9 |
| 20260502023032 | 10 | 113 | 0.0 | 1.6 | 0.00 | 0.00 | 0.00 | 85 | 1011.9 |
| 20260502022528 | 10 | 127 | 3.2 | 3.2 | 0.00 | 0.00 | 0.00 | 85 | 1011.8 |
| 20260502022026 | 10 | 118 | 1.6 | 1.6 | 0.00 | 0.00 | 0.00 | 84 | 1011.8 |
| 20260502021523 | 10 | 156 | 4.8 | 8.0 | 0.00 | 0.00 | 0.00 | 84 | 1011.8 |
| 20260502021020 | 10 | 251 | 4.8 | 4.8 | 0.00 | 0.00 | 0.00 | 84 | 1011.6 |
| 20260502020517 | 10 | 140 | 3.2 | 4.8 | 0.00 | 0.00 | 0.00 | 83 | 1011.8 |
| 20260502020014 | 10 | 258 | 4.8 | 8.0 | 0.00 | 0.00 | 0.00 | 83 | 1011.8 |
| 20260502015512 | 10 | 270 | 4.8 | 4.8 | 0.00 | 0.00 | 0.00 | 82 | 1011.9 |
| 20260502015008 | 10 | 301 | 3.2 | 3.2 | 0.00 | 0.00 | 0.00 | 81 | 1011.8 |
| 20260502014505 | 10 | 313 | 1.6 | 3.2 | 0.00 | 0.00 | 0.00 | 80 | 1011.7 |
| 20260502014002 | 10 | 310 | 1.6 | 3.2 | 0.00 | 0.00 | 0.00 | 79 | 1011.7 |
| 20260502013457 | 10 | 308 | 1.6 | 1.6 | 0.00 | 0.00 | 0.00 | 78 | 1011.8 |
| 20260502012954 | 10 | 204 | 3.2 | 4.8 | 0.00 | 0.00 | 0.00 | 77 | 1011.5 |
| 20260502012452 | 10 | 167 | 9.7 | 11.3 | 0.00 | 0.00 | 0.00 | 77 | 1011.5 |
| 20260502011949 | 10 | 277 | 6.4 | 8.0 | 0.00 | 0.00 | 0.00 | 76 | 1011.5 |
| 20260502011445 | 10 | 276 | 4.8 | 4.8 | 0.00 | 0.00 | 0.00 | 75 | 1011.5 |
| 20260502010942 | 11 | 210 | 8.0 | 11.3 | 0.00 | 0.00 | 0.00 | 74 | 1011.4 |
| 20260502010439 | 11 | 161 | 1.6 | 3.2 | 0.00 | 0.00 | 0.00 | 74 | 1011.2 |
| 20260502005935 | 11 | 148 | 4.8 | 8.0 | 0.00 | 0.00 | 0.00 | 74 | 1011.4 |
| 20260502005433 | 11 | 208 | 6.4 | 9.7 | 0.00 | 0.00 | 0.00 | 73 | 1011.6 |
| 20260502004931 | 11 | 311 | 1.6 | 3.2 | 0.00 | 0.00 | 0.00 | 73 | 1011.3 |
| 20260502004426 | 11 | 249 | 6.4 | 11.3 | 0.00 | 0.00 | 0.00 | 72 | 1011.4 |
| 20260502003924 | 11 | 261 | 4.8 | 4.8 | 0.00 | 0.00 | 0.00 | 72 | 1011.4 |
| 20260502003421 | 11 | 326 | 0.0 | 0.0 | 0.00 | 0.00 | 0.00 | 73 | 1011.6 |
| 20260502002917 | 11 | 232 | 1.6 | 1.6 | 0.00 | 0.00 | 0.00 | 73 | 1011.4 |
| 20260502002415 | 11 | 296 | 3.2 | 3.2 | 0.00 | 0.00 | 0.00 | 73 | 1011.3 |
| 20260502001912 | 11 | 256 | 9.7 | 12.9 | 0.00 | 0.00 | 0.00 | 73 | 1011.2 |
| 20260502001410 | 11 | 215 | 4.8 | 8.0 | 0.00 | 0.00 | 0.00 | 73 | 1011.1 |
| 20260502000907 | 11 | 227 | 6.4 | 9.7 | 0.00 | 0.00 | 0.00 | 73 | 1011.1 |
| 20260502000406 | 11 | 258 | 1.6 | 3.2 | 0.00 | 0.00 | 0.00 | 74 | 1011.1 |
| 20260501235901 | 11 | 266 | 4.8 | 4.8 | 0.00 | 0.00 | 0.00 | 73 | 1011.1 |
| 20260501235357 | 11 | 308 | 1.6 | 1.6 | 0.00 | 0.00 | 0.00 | 73 | 1011.1 |
| 20260501234852 | 11 | 303 | 3.2 | 3.2 | 0.00 | 0.00 | 0.00 | 73 | 1010.9 |
| 20260501234349 | 11 | 248 | 6.4 | 9.7 | 0.00 | 0.00 | 0.00 | 73 | 1010.9 |
| 20260501233848 | 11 | 119 | 1.6 | 3.2 | 0.00 | 0.00 | 0.00 | 73 | 1010.9 |
| 20260501233345 | 11 | 315 | 3.2 | 3.2 | 0.00 | 0.00 | 0.00 | 72 | 1011.0 |
| 20260501232840 | 11 | 283 | 3.2 | 3.2 | 0.00 | 0.00 | 0.00 | 71 | 1010.9 |
| 20260501232338 | 11 | 231 | 4.8 | 8.0 | 0.00 | 0.00 | 0.00 | 71 | 1010.9 |
| 20260501231835 | 11 | 241 | 6.4 | 9.7 | 0.00 | 0.00 | 0.00 | 70 | 1010.7 |
| 20260501231333 | 11 | 120 | 4.8 | 9.7 | 0.00 | 0.00 | 0.00 | 69 | 1010.5 |
| 20260501230831 | 11 | 198 | 8.0 | 11.3 | 0.00 | 0.00 | 0.00 | 69 | 1010.6 |
| 20260501230330 | 12 | 236 | 6.4 | 8.0 | 0.00 | 0.00 | 0.00 | 68 | 1010.4 |
| 20260501225827 | 12 | 253 | 4.8 | 8.0 | 0.00 | 0.00 | 0.00 | 67 | 1010.6 |
| 20260501225325 | 12 | 216 | 6.4 | 8.0 | 0.00 | 0.00 | 0.00 | 66 | 1010.6 |
| 20260501224820 | 12 | 218 | 4.8 | 9.7 | 0.00 | 0.00 | 0.00 | 66 | 1010.6 |
| 20260501224318 | 12 | 116 | 12.9 | 14.5 | 0.00 | 0.00 | 0.00 | 66 | 1010.5 |
| 20260501223814 | 12 | 132 | 8.0 | 11.3 | 0.00 | 0.00 | 0.00 | 65 | 1010.4 |
| 20260501223310 | 13 | 147 | 12.9 | 16.1 | 0.00 | 0.00 | 0.00 | 64 | 1010.6 |
| 20260501222806 | 12 | 273 | 1.6 | 3.2 | 0.00 | 0.00 | 0.00 | 65 | 1010.4 |
| 20260501222305 | 12 | 117 | 9.7 | 12.9 | 0.00 | 0.00 | 0.00 | 65 | 1010.6 |
| 20260501221800 | 13 | 226 | 6.4 | 11.3 | 0.00 | 0.00 | 0.00 | 64 | 1010.6 |
| 20260501221257 | 13 | 249 | 8.0 | 12.9 | 0.00 | 0.00 | 0.00 | 64 | 1010.6 |
| 20260501220755 | 13 | 267 | 8.0 | 11.3 | 0.00 | 0.00 | 0.00 | 63 | 1010.7 |
| 20260501220252 | 13 | 177 | 4.8 | 8.0 | 0.00 | 0.00 | 0.00 | 62 | 1010.7 |
| 20260501215749 | 13 | 125 | 4.8 | 8.0 | 0.00 | 0.00 | 0.00 | 62 | 1010.5 |
| 20260501215244 | 13 | 187 | 9.7 | 11.3 | 0.00 | 0.00 | 0.00 | 62 | 1010.7 |
| 20260501214740 | 13 | 278 | 11.3 | 14.5 | 0.00 | 0.00 | 0.00 | 62 | 1010.7 |
| 20260501214236 | 13 | 258 | 9.7 | 11.3 | 0.00 | 0.00 | 0.00 | 62 | 1010.5 |
| 20260501213733 | 13 | 247 | 4.8 | 4.8 | 0.00 | 0.00 | 0.00 | 61 | 1010.5 |
| 20260501213229 | 14 | 144 | 8.0 | 11.3 | 0.00 | 0.00 | 0.00 | 59 | 1010.5 |
| 20260501212726 | 14 | 242 | 3.2 | 4.8 | 0.00 | 0.00 | 0.00 | 59 | 1010.2 |
| 20260501212222 | 13 | 264 | 9.7 | 11.3 | 0.00 | 0.00 | 0.00 | 58 | 1010.4 |
| 20260501211719 | 13 | 264 | 11.3 | 16.1 | 0.00 | 0.00 | 0.00 | 57 | 1010.2 |
| 20260501211216 | 14 | 199 | 8.0 | 11.3 | 0.00 | 0.00 | 0.00 | 56 | 1010.3 |
| 20260501210713 | 14 | 279 | 14.5 | 16.1 | 0.00 | 0.00 | 0.00 | 56 | 1010.4 |
| 20260501210210 | 15 | 230 | 9.7 | 11.3 | 0.00 | 0.00 | 0.00 | 54 | 1010.1 |
| 20260501205706 | 15 | 167 | 11.3 | 14.5 | 0.00 | 0.00 | 0.00 | 53 | 1010.4 |
| 20260501205203 | 15 | 138 | 8.0 | 14.5 | 0.00 | 0.00 | 0.00 | 51 | 1010.2 |
| 20260501204700 | 16 | 236 | 6.4 | 9.7 | 0.00 | 0.00 | 0.00 | 50 | 1010.1 |
| 20260501204155 | 16 | 315 | 6.4 | 12.9 | 0.00 | 0.00 | 0.00 | 49 | 1010.2 |
| 20260501203652 | 16 | 288 | 12.9 | 14.5 | 0.00 | 0.00 | 0.00 | 49 | 1010.0 |
| 20260501203150 | 16 | 263 | 11.3 | 12.9 | 0.00 | 0.00 | 0.00 | 47 | 1010.2 |
| 20260501202647 | 16 | 138 | 1.6 | 3.2 | 0.00 | 0.00 | 0.00 | 50 | 1010.1 |
| 20260501202144 | 15 | 199 | 9.7 | 14.5 | 0.00 | 0.00 | 0.00 | 49 | 1010.2 |
| 20260501201641 | 16 | 231 | 14.5 | 22.5 | 0.00 | 0.00 | 0.00 | 48 | 1010.0 |
| 20260501201137 | 16 | 247 | 4.8 | 4.8 | 0.00 | 0.00 | 0.00 | 50 | 1010.0 |
| 20260501200634 | 16 | 235 | 11.3 | 12.9 | 0.00 | 0.00 | 0.00 | 49 | 1009.9 |
| 20260501200132 | 16 | 307 | 12.9 | 16.1 | 0.00 | 0.00 | 0.00 | 48 | 1009.7 |
| 20260501195629 | 17 | 117 | 4.8 | 8.0 | 0.00 | 0.00 | 0.00 | 43 | 1009.7 |
| 20260501195125 | 17 | 330 | 3.2 | 3.2 | 0.00 | 0.00 | 0.00 | 42 | 1009.9 |
| 20260501194620 | 17 | 230 | 6.4 | 8.0 | 0.00 | 0.00 | 0.00 | 43 | 1009.9 |
| 20260501194116 | 17 | 271 | 4.8 | 9.7 | 0.00 | 0.00 | 0.00 | 42 | 1009.8 |
| 20260501193614 | 17 | 317 | 3.2 | 4.8 | 0.00 | 0.00 | 0.00 | 43 | 1009.9 |
| 20260501193112 | 16 | 153 | 11.3 | 14.5 | 0.00 | 0.00 | 0.00 | 42 | 1009.8 |
| 20260501192608 | 16 | 251 | 4.8 | 4.8 | 0.00 | 0.00 | 0.00 | 41 | 1010.2 |
| 20260501192106 | 17 | 304 | 4.8 | 4.8 | 0.00 | 0.00 | 0.00 | 42 | 1010.2 |
| 20260501191603 | 16 | 297 | 8.0 | 11.3 | 0.00 | 0.00 | 0.00 | 42 | 1010.3 |
| 20260501191100 | 17 | 341 | 4.8 | 8.0 | 0.00 | 0.00 | 0.00 | 42 | 1010.2 |
| 20260501190556 | 17 | 6 | 9.7 | 12.9 | 0.00 | 0.00 | 0.00 | 39 | 1010.2 |
| 20260501190052 | 17 | 204 | 4.8 | 4.8 | 0.00 | 0.00 | 0.00 | 42 | 1010.5 |
| 20260501185548 | 17 | 276 | 3.2 | 3.2 | 0.00 | 0.00 | 0.00 | 36 | 1010.4 |
| 20260501185044 | 17 | 269 | 4.8 | 4.8 | 0.00 | 0.00 | 0.00 | 37 | 1010.7 |
| 20260501184540 | 17 | 2 | 6.4 | 9.7 | 0.00 | 0.00 | 0.00 | 37 | 1010.8 |
| 20260501184040 | 16 | 249 | 4.8 | 8.0 | 0.00 | 0.00 | 0.00 | 40 | 1010.5 |
| 20260501183537 | 16 | 6 | 9.7 | 12.9 | 0.00 | 0.00 | 0.00 | 38 | 1010.6 |
| 20260501183033 | 16 | 338 | 12.9 | 17.7 | 0.00 | 0.00 | 0.00 | 38 | 1010.6 |
| 20260501182530 | 17 | 312 | 4.8 | 4.8 | 0.00 | 0.00 | 0.00 | 37 | 1010.7 |
| 20260501182028 | 16 | 349 | 1.6 | 3.2 | 0.00 | 0.00 | 0.00 | 41 | 1010.8 |
| 20260501181525 | 16 | 289 | 8.0 | 11.3 | 0.00 | 0.00 | 0.00 | 39 | 1010.8 |
| 20260501181021 | 16 | 358 | 9.7 | 14.5 | 0.00 | 0.00 | 0.00 | 39 | 1010.8 |
| 20260501180519 | 15 | 313 | 11.3 | 12.9 | 0.00 | 0.00 | 0.00 | 38 | 1010.9 |
| 20260501180015 | 15 | 311 | 14.5 | 16.1 | 0.00 | 0.00 | 0.00 | 39 | 1010.9 |
| 20260501175512 | 15 | 240 | 8.0 | 8.0 | 0.00 | 0.00 | 0.00 | 38 | 1010.9 |
| 20260501175009 | 16 | 342 | 6.4 | 8.0 | 0.00 | 0.00 | 0.00 | 41 | 1010.8 |
| 20260501174506 | 16 | 316 | 4.8 | 8.0 | 0.00 | 0.00 | 0.00 | 39 | 1010.8 |
| 20260501174003 | 15 | 290 | 9.7 | 14.5 | 0.00 | 0.00 | 0.00 | 41 | 1010.9 |
| 20260501173501 | 15 | 354 | 3.2 | 3.2 | 0.00 | 0.00 | 0.00 | 42 | 1011.1 |
| 20260501172956 | 16 | 336 | 9.7 | 12.9 | 0.00 | 0.00 | 0.00 | 40 | 1011.0 |
| 20260501172452 | 15 | 324 | 1.6 | 3.2 | 0.00 | 0.00 | 0.00 | 42 | 1011.2 |
| 20260501171948 | 15 | 301 | 12.9 | 14.5 | 0.00 | 0.00 | 0.00 | 39 | 1011.3 |
| 20260501171444 | 15 | 4 | 1.6 | 1.6 | 0.00 | 0.00 | 0.00 | 40 | 1011.4 |
| 20260501170941 | 15 | 336 | 4.8 | 4.8 | 0.00 | 0.00 | 0.00 | 40 | 1011.3 |
| 20260501170438 | 15 | 336 | 11.3 | 12.9 | 0.00 | 0.00 | 0.00 | 41 | 1011.4 |
| 20260501165936 | 15 | 299 | 6.4 | 8.0 | 0.00 | 0.00 | 0.00 | 41 | 1011.3 |
| 20260501165433 | 15 | 304 | 8.0 | 11.3 | 0.00 | 0.00 | 0.00 | 41 | 1011.4 |
| 20260501164931 | 14 | 331 | 4.8 | 4.8 | 0.00 | 0.00 | 0.00 | 43 | 1011.6 |
| 20260501164429 | 15 | 331 | 3.2 | 3.2 | 0.00 | 0.00 | 0.00 | 44 | 1011.4 |
| 20260501163925 | 14 | 20 | 4.8 | 4.8 | 0.00 | 0.00 | 0.00 | 42 | 1011.6 |
| 20260501163421 | 15 | 326 | 11.3 | 14.5 | 0.00 | 0.00 | 0.00 | 42 | 1011.5 |
| 20260501162918 | 14 | 281 | 4.8 | 4.8 | 0.00 | 0.00 | 0.00 | 43 | 1011.6 |
| 20260501162414 | 15 | 345 | 6.4 | 8.0 | 0.00 | 0.00 | 0.00 | 43 | 1011.6 |
| 20260501161911 | 14 | 270 | 6.4 | 8.0 | 0.00 | 0.00 | 0.00 | 43 | 1011.7 |
| 20260501161409 | 13 | 9 | 3.2 | 4.8 | 0.00 | 0.00 | 0.00 | 45 | 1011.9 |
| 20260501160905 | 13 | 344 | 1.6 | 3.2 | 0.00 | 0.00 | 0.00 | 42 | 1011.9 |
| 20260501160402 | 13 | 320 | 8.0 | 11.3 | 0.00 | 0.00 | 0.00 | 44 | 1012.0 |
| 20260501155859 | 13 | 317 | 8.0 | 9.7 | 0.00 | 0.00 | 0.00 | 44 | 1012.0 |
| 20260501155356 | 13 | 18 | 3.2 | 3.2 | 0.00 | 0.00 | 0.00 | 43 | 1012.1 |
| 20260501154853 | 13 | 335 | 4.8 | 4.8 | 0.00 | 0.00 | 0.00 | 45 | 1012.0 |
| 20260501154350 | 13 | 336 | 6.4 | 9.7 | 0.00 | 0.00 | 0.00 | 45 | 1012.0 |
| 20260501153847 | 13 | 342 | 4.8 | 8.0 | 0.00 | 0.00 | 0.00 | 43 | 1012.4 |
| 20260501153345 | 13 | 315 | 4.8 | 4.8 | 0.00 | 0.00 | 0.00 | 44 | 1012.5 |
| 20260501152840 | 13 | 341 | 6.4 | 11.3 | 0.00 | 0.00 | 0.00 | 44 | 1012.3 |
| 20260501152338 | 13 | 309 | 12.9 | 14.5 | 0.00 | 0.00 | 0.00 | 44 | 1012.5 |
| 20260501151835 | 13 | 353 | 1.6 | 3.2 | 0.00 | 0.00 | 0.00 | 49 | 1012.3 |
| 20260501151331 | 12 | 337 | 3.2 | 3.2 | 0.00 | 0.00 | 0.00 | 47 | 1012.4 |
| 20260501150828 | 12 | 342 | 6.4 | 8.0 | 0.00 | 0.00 | 0.00 | 48 | 1012.3 |
| 20260501150324 | 12 | 345 | 8.0 | 11.3 | 0.00 | 0.00 | 0.00 | 50 | 1012.2 |
| 20260501145820 | 12 | 334 | 12.9 | 17.7 | 0.00 | 0.00 | 0.00 | 48 | 1012.0 |
| 20260501145317 | 12 | 6 | 3.2 | 4.8 | 0.00 | 0.00 | 0.00 | 51 | 1012.0 |
| 20260501144814 | 12 | 351 | 3.2 | 3.2 | 0.00 | 0.00 | 0.00 | 50 | 1011.9 |
| 20260501144310 | 12 | 295 | 4.8 | 8.0 | 0.00 | 0.00 | 0.00 | 52 | 1012.0 |
| 20260501143806 | 12 | 8 | 8.0 | 11.3 | 0.00 | 0.00 | 0.00 | 51 | 1012.0 |
| 20260501143303 | 12 | 326 | 8.0 | 11.3 | 0.00 | 0.00 | 0.00 | 50 | 1012.1 |
| 20260501142800 | 12 | 333 | 9.7 | 11.3 | 0.00 | 0.00 | 0.00 | 51 | 1012.2 |
| 20260501142256 | 11 | 358 | 8.0 | 9.7 | 0.00 | 0.00 | 0.00 | 54 | 1012.2 |
| 20260501141752 | 11 | 296 | 8.0 | 14.5 | 0.00 | 0.00 | 0.00 | 55 | 1012.1 |